Location: Chevoux
(46.3801°N, 4.9476°E)
Time: 22:58:53
(UTC+00:00)

Cosmos 44 Rocket - Pass Details

Date: 28 January 2021
Orbit: 637 x 753 km, 65.1° (Epoch: 04 March)

Event Time Altitude Azimuth Distance (km) Brightness Sun altitude
Rises 18:15:05 0° 193° (SSW) 3,028 6.9 -16.6°
Reaches altitude 10° 18:17:27 10° 186° (S) 2,136 6.0 -17.0°
Maximum altitude 18:22:01 41° 117° (ESE) 1,021 3.7 -17.8°
Enters shadow 18:23:20 34° 80° (E) 1,164 3.9 -18.0°
